Temp
26 26 26 26 26 26 26 26 25 25 25 25 25 25 25 25 25 25 25 25 25 25 25 25 25 25 25 25 25 25 25 26 26 25 25 26 26 26 26 26 26 26
26 26 26 26 26 26 26 26 25 25 25 25 25 25 25 25 25 25 25 26 26 25 26 25 25 25 25 25 25 25 25 25 25 25 25 26 26 26 26 26 26 26
25 26 26 26 26 26 26 26 25 25 25 25 26 26 26 26 26 26 26 26 26 26 26 26 25 25 25 25 25 25 25 25 25 25 25 25 25 25 26 26 26 26
25 25 26 26 26 26 26 25 25 25 25 26 26 26 26 26 26 26 26 26 26 26 26 26 25 25 25 25 25 25 25 25 25 25 25 25 25 25 26 26 26 26
25 25 25 25 26 26 25 25 25 25 26 26 26 26 26 26 26 26 26 26 26 26 26 26 25 25 25 25 25 25 25 25 25 25 25 25 25 25 25 26 25 26
25 25 25 25 25 25 25 25 25 26 26 26 26 26 26 26 26 26 26 26 26 26 26 26 25 25 25 25 25 25 25 25 25 25 25 25 25 25 25 25 25 25
25 25 25 25 25 25 25 25 26 26 26 26 26 26 26 26 26 26 26 27 27 26 26 26 26 26 26 25 25 25 25 25 25 25 25 25 25 25 25 25 25 25
25 25 25 25 25 25 25 25 26 26 26 26 26 26 26 27 27 27 27 27 27 26 26 26 26 26 26 25 25 25 25 25 25 25 25 25 25 25 25 25 25 25
25 25 25 25 25 25 26 26 26 26 26 26 26 27 27 27 27 27 27 27 27 27 27 26 26 26 26 26 26 26 26 26 25 25 25 25 25 25 25 25 25 25
25 25 25 25 25 26 26 26 26 26 27 27 27 27 27 27 27 27 27 27 26 25 25 24 24 24 25 26 26 26 26 26 25 25 25 25 25 25 25 25 25 25
25 25 25 26 26 26 26 26 26 27 27 27 27 27 27 27 27 26 25 24 23 23 23 23 23 22 22 23 25 25 26 26 26 25 25 25 25 25 25 25 25 25
25 25 26 26 26 26 26 26 27 27 27 27 27 27 27 27 26 24 23 23 23 24 24 25 25 24 24 24 24 24 25 25 26 25 25 25 25 25 25 25 25 25
26 26 26 26 26 26 26 26 27 27 27 27 27 27 27 27 25 25 25 24 25 25 25 25 25 25 25 24 24 25 24 25 25 25 25 25 25 25 25 25 25 25
26 26 26 26 26 27 26 27 27 27 27 27 27 27 27 27 26 26 25 25 25 25 25 25 25 24 24 24 25 25 24 24 25 25 25 25 25 25 25 25 25 25
26 26 27 27 27 27 27 27 27 27 27 27 28 27 27 27 27 26 26 25 25 25 25 25 24 24 24 24 25 25 25 25 25 25 25 25 25 25 25 25 25 25
27 27 27 27 27 27 27 27 27 27 27 28 28 27 27 27 27 26 26 26 26 25 25 25 25 24 24 24 24 25 25 25 25 25 25 25 25 25 24 24 24 24
26 27 27 27 27 27 27 28 27 27 28 28 27 27 27 27 27 26 26 26 26 25 25 25 25 24 24 24 24 24 25 25 25 25 25 25 25 25 24 24 24 24
26 26 27 27 27 27 27 28 28 27 27 28 27 27 27 27 26 26 26 26 26 25 25 25 25 25 24 24 24 24 24 24 24 24 25 25 25 25 24 24 24 24
25 26 27 27 27 27 27 28 27 27 27 27 27 27 26 26 26 26 26 26 25 25 25 25 24 24 24 24 24 24 24 24 24 24 25 25 25 24 24 24 24 23
25 26 26 27 27 27 27 27 27 27 27 27 27 26 26 26 26 25 25 25 25 25 25 24 24 24 24 24 24 24 24 24 24 24 24 24 24 24 23 23 23 22
26 26 26 26 26 26 26 26 26 26 26 26 26 26 26 26 25 25 25 25 25 25 24 23 23 23 23 23 23 23 23 23 23 23 23 23 23 23 23 22 22 21
26 26 26 25 25 25 25 25 25 25 25 25 25 25 24 24 23 23 24 24 23 23 22 22 21 22 22 22 22 22 23 23 23 23 23 23 22 22 22 21 21 21
25 25 24 24 24 23 24 24 23 23 23 23 23 23 22 21 21 21 21 21 21 20 20 20 20 20 20 21 21 22 22 22 22 22 22 22 21 21 21 21 21 21
24 23 23 22 22 22 22 22 22 22 22 21 20 20 20 20 20 19 19 19 19 19 19 19 19 19 19 20 20 21 21 21 21 21 21 20 20 20 21 21 21 21
22 22 22 22 22 21 22 22 21 20 20 20 19 19 19 19 18 18 18 17 17 17 17 17 17 18 18 19 19 20 20 20 20 20 19 19 20 20 20 20 21 21
21 21 21 21 21 21 20 20 20 19 19 20 19 18 18 18 17 16 16 16 16 16 16 16 16 16 17 18 18 19 19 18 18 18 18 18 19 20 20 20 20 21
Height
831 832 833 833 834 835 836 837 838 838 839 839 840 840 841 841 842 842 842 843 843 844 844 844 845 845 845 845 845 845 845 845 844 844 844 844 844 844 843 843 843 843
830 831 832 833 833 834 835 836 837 837 838 839 839 840 840 841 841 841 841 842 842 843 843 844 844 844 844 844 844 844 844 844 844 844 844 844 844 843 843 842 842 842
829 830 831 832 832 833 834 835 836 837 837 838 838 839 839 840 840 840 841 841 841 842 842 842 843 843 843 843 843 843 843 844 843 843 844 843 843 843 842 842 842 841
828 829 830 831 832 833 834 835 835 836 836 837 837 838 838 838 839 839 839 840 840 840 841 841 841 842 842 842 843 843 843 843 843 843 843 842 842 842 841 841 841 840
827 828 829 830 831 832 833 833 834 835 835 835 836 836 837 837 837 838 838 838 838 839 839 840 840 840 841 841 842 842 842 842 842 842 842 841 841 841 841 841 840 840
825 827 828 829 830 831 832 832 833 833 833 834 834 835 835 835 836 836 836 836 837 837 838 838 839 839 840 840 841 841 841 841 841 841 841 841 841 841 840 840 839 839
824 825 826 828 829 829 830 830 831 832 832 833 833 833 833 833 834 834 834 835 835 835 836 836 837 838 839 839 839 840 840 840 841 841 841 840 840 840 840 839 839 839
822 823 825 826 827 828 829 829 830 830 830 831 831 831 832 832 832 832 832 833 833 834 834 835 836 837 838 838 838 839 839 839 840 840 840 840 839 839 839 839 839 838
820 821 823 824 825 826 826 827 827 828 829 829 829 830 830 830 830 830 831 831 832 832 833 834 835 836 836 837 837 838 838 839 839 839 839 839 838 838 838 838 838 837
818 819 820 822 822 823 824 825 825 826 827 827 827 828 828 828 828 828 829 829 830 832 833 835 836 836 836 836 837 837 837 838 838 838 838 838 837 837 837 837 837 836
815 817 818 818 820 821 821 822 823 824 824 825 825 826 826 826 826 827 828 831 832 834 835 836 836 837 837 837 837 837 836 836 837 837 837 837 837 836 836 836 836 836
813 814 815 816 817 818 819 820 821 821 822 822 823 823 824 824 825 827 830 832 833 833 833 832 832 833 834 834 835 836 836 836 835 835 836 836 836 836 835 835 835 835
809 811 812 813 814 815 816 817 818 819 819 820 820 821 822 822 823 826 828 829 830 830 831 830 830 831 831 832 833 834 834 835 834 834 835 834 835 834 834 835 834 834
806 808 809 810 812 812 814 814 815 816 816 817 818 818 819 820 822 823 824 826 827 828 829 829 829 830 830 830 831 831 832 833 832 833 833 833 833 833 833 833 833 833
803 805 806 808 809 810 811 812 813 814 815 815 816 816 817 818 820 821 822 823 825 825 826 826 827 828 828 828 829 829 830 830 830 831 832 832 832 832 832 832 832 832
801 803 804 805 807 808 809 810 811 812 813 813 813 814 816 816 818 819 820 821 822 823 824 824 825 825 826 827 828 828 828 829 829 829 830 830 830 830 831 831 831 831
798 800 802 804 805 807 808 809 810 810 811 811 811 812 814 815 816 817 818 819 820 820 821 822 823 824 825 826 826 827 827 827 828 828 828 828 829 829 830 830 830 830
796 798 800 802 803 804 806 807 808 808 808 808 809 810 811 812 813 815 816 817 818 819 820 821 822 822 823 824 825 825 826 826 827 827 827 827 827 827 828 828 828 829
795 796 797 799 800 802 803 804 804 805 805 806 806 807 808 809 811 813 814 815 816 817 818 819 820 821 822 822 823 823 824 825 826 826 826 826 826 826 827 827 827 828
792 794 796 797 798 800 801 802 803 803 804 804 805 805 806 807 809 811 812 814 815 816 817 818 818 819 820 820 821 821 822 823 824 824 824 825 825 826 827 827 827 827
787 790 793 794 796 797 798 799 801 802 803 803 803 804 805 806 807 809 810 812 813 814 816 816 817 818 818 818 819 820 821 822 822 823 823 824 824 825 826 826 827 827
784 786 788 791 793 795 796 797 798 800 801 802 803 804 805 806 807 808 809 810 812 813 814 815 816 817 817 817 818 818 819 820 821 821 821 822 823 824 825 826 827 827
781 783 785 788 791 793 794 795 796 798 800 802 804 804 804 806 807 809 809 810 811 813 814 814 815 816 816 816 816 817 818 819 820 820 820 821 822 823 824 826 827 827
779 781 783 786 788 791 793 794 795 797 799 803 806 806 806 807 808 809 811 811 812 813 814 814 814 815 816 816 815 815 816 818 819 819 819 820 821 822 824 825 827 827
777 780 783 785 787 790 792 794 795 795 798 804 808 809 810 811 811 811 811 811 812 814 815 815 815 815 815 816 816 815 815 816 817 818 819 821 821 822 824 825 826 827
777 779 783 785 788 790 792 795 796 796 799 803 807 809 810 811 812 814 815 815 813 812 814 817 818 817 817 816 816 816 816 816 816 817 820 823 822 822 823 825 826 827
Wind_Speed
19 20 22 22 21 20 20 20 20 20 19 19 20 20 18 17 16 16 15 14 13 13 13 13 12 12 11 10 9 9 8 8 8 7 7 7 7 8 8 9 9 10
21 20 22 21 20 20 19 20 20 19 19 18 19 19 18 17 16 17 17 15 15 15 14 13 13 13 13 12 11 11 10 10 10 9 8 8 7 7 8 8 8 9
23 21 22 22 21 20 20 19 19 19 19 18 17 17 18 18 17 17 18 18 18 18 16 14 14 14 14 13 13 13 11 10 11 11 9 9 7 7 7 8 9 9
26 23 23 23 22 21 20 19 19 18 19 18 17 16 16 17 17 18 18 18 18 18 17 15 15 15 14 13 13 14 12 10 10 9 9 8 8 8 8 7 7 7
28 25 24 24 22 21 21 20 20 18 18 18 18 17 17 17 17 18 18 19 19 18 17 16 16 16 15 13 12 13 12 11 10 9 9 9 9 9 8 7 6 6
28 27 25 25 23 22 22 21 21 19 18 19 18 18 18 18 19 19 19 19 20 18 17 16 16 16 15 13 12 13 13 12 10 9 10 10 9 8 8 8 7 6
28 28 26 25 24 23 22 22 21 20 20 20 18 18 18 18 19 20 20 20 20 19 19 18 17 16 16 15 14 14 14 13 11 10 9 8 8 8 8 8 8 7
28 28 27 26 25 24 23 22 22 21 20 20 20 19 19 19 20 21 22 22 21 20 19 19 18 16 15 16 17 16 15 14 13 12 11 10 9 9 9 9 9 8
28 28 28 27 26 26 25 24 24 23 21 21 22 22 22 22 22 22 23 23 23 23 23 21 20 18 17 17 17 16 16 15 14 13 12 11 10 10 9 9 9 9
28 28 28 28 28 27 27 26 25 24 24 23 23 22 23 24 24 25 27 25 22 20 17 15 15 16 18 19 18 16 15 14 14 13 11 10 9 8 8 8 8 8
29 28 29 30 30 29 28 26 24 23 23 24 22 21 22 23 22 22 20 15 11 11 11 11 12 14 15 14 15 14 13 13 13 12 10 9 8 8 7 7 7 6
30 30 30 30 31 30 29 27 24 22 22 22 22 23 23 21 17 14 12 10 12 17 18 18 17 16 14 14 14 13 13 13 12 10 9 8 8 7 6 6 5 5
32 31 31 31 31 29 28 28 25 24 24 24 24 25 24 21 16 15 18 19 18 20 21 19 17 16 16 18 16 13 13 12 10 9 8 7 6 6 5 5 4 3
33 32 31 31 31 29 28 28 27 27 27 26 26 25 23 21 18 17 18 18 17 19 21 19 16 15 16 17 15 13 13 12 10 9 7 5 4 4 4 4 3 4
34 33 31 30 30 29 27 27 27 28 27 26 27 27 23 20 20 18 17 17 18 19 19 17 16 16 17 16 15 14 14 12 11 10 7 5 5 5 4 3 3 3
35 33 32 30 30 30 28 26 25 25 23 22 24 25 22 20 20 20 18 17 18 19 19 17 16 17 17 16 16 16 15 13 12 11 10 8 8 6 5 5 4 4
31 30 28 28 28 28 27 25 25 23 19 18 19 19 18 19 21 22 21 19 19 20 20 17 16 17 18 18 17 17 16 15 14 13 12 12 10 8 8 8 7 6
27 27 25 22 22 23 23 23 24 22 19 18 18 16 16 18 21 22 21 19 19 20 20 18 17 18 19 19 18 17 16 15 14 14 13 12 10 10 11 10 8 7
23 24 24 21 19 19 19 21 23 23 21 20 19 18 18 19 20 21 19 18 19 20 20 20 19 19 19 19 18 17 16 15 15 14 13 11 11 12 12 10 9 8
22 21 22 23 21 18 18 19 21 22 21 20 20 19 19 19 19 19 19 18 19 19 20 20 20 19 19 18 17 16 14 13 15 15 13 12 11 11 10 9 8 6
25 24 23 23 21 19 19 19 20 20 20 19 20 20 21 20 20 20 20 19 19 20 20 19 18 17 17 16 14 13 12 13 15 15 14 12 11 10 9 7 6 4
26 26 24 22 20 19 18 18 18 18 17 17 19 20 19 18 18 19 20 20 19 19 18 16 14 14 14 14 13 12 13 15 16 15 14 13 11 10 9 7 7 6
25 24 23 21 20 18 17 17 16 16 15 14 16 17 16 15 15 16 18 18 17 16 14 13 11 9 9 12 13 13 14 14 15 15 14 14 13 12 11 11 9 7
25 24 22 20 19 17 17 16 15 16 15 10 8 11 14 14 14 15 15 15 14 13 12 12 10 8 7 10 12 14 16 16 16 16 16 17 17 15 13 11 9 7
22 20 18 16 15 13 13 13 12 13 12 8 4 9 13 12 13 15 16 16 16 16 14 13 13 12 10 10 11 14 16 16 17 17 16 16 17 16 13 11 9 7
16 15 14 12 11 10 10 10 12 15 17 12 9 10 12 12 14 16 15 15 17 18 16 14 13 13 12 12 12 13 14 16 18 19 18 15 15 15 12 10 8 8
Wind_Direction
205 204 202 200 200 202 203 203 206 209 212 213 216 219 221 225 227 228 229 224 221 222 221 220 221 226 228 229 233 230 232 237 235 241 252 263 273 278 284 294 304 312
204 202 202 203 204 205 206 207 207 210 213 215 218 221 223 227 231 232 231 227 227 226 224 224 225 228 228 227 229 231 236 241 238 241 250 258 273 287 291 293 297 302
207 205 206 207 208 207 210 212 214 217 219 221 224 227 226 227 232 235 234 235 236 231 227 228 230 231 231 232 233 234 238 247 246 241 247 255 263 276 281 279 281 288
209 210 210 211 213 214 213 214 218 222 222 224 227 230 230 229 231 235 237 239 237 230 228 231 233 234 237 238 237 233 234 247 250 239 243 254 255 264 276 280 284 292
211 213 214 214 216 216 214 215 221 224 224 225 229 233 236 233 231 235 240 238 232 229 231 232 232 234 238 239 237 233 236 247 249 240 248 262 265 269 275 280 294 307
213 216 216 217 219 218 216 218 221 225 227 229 233 236 236 234 233 236 239 234 228 228 231 230 232 237 237 237 237 236 238 245 249 250 256 264 268 269 268 273 289 302
214 217 217 218 221 221 221 221 222 225 228 231 235 236 233 233 233 233 234 231 227 228 228 227 230 233 234 235 237 238 239 242 246 247 250 254 257 256 258 269 281 287
214 217 219 220 221 222 224 225 226 226 225 228 232 232 233 235 234 231 229 228 229 229 229 228 230 232 235 236 235 236 239 240 240 242 248 257 260 259 260 266 276 285
214 216 219 220 221 222 225 227 230 231 228 227 230 232 234 235 236 234 230 227 229 230 229 231 232 232 235 234 233 238 241 239 237 242 252 261 262 260 262 264 274 287
213 216 218 219 221 223 226 228 232 234 232 231 235 237 236 237 240 240 233 227 227 228 233 243 247 248 245 236 232 236 237 235 237 241 248 257 260 258 258 264 273 282
213 215 217 219 221 223 226 229 233 234 231 231 235 238 238 239 241 237 231 227 227 234 245 252 259 269 268 251 241 240 235 232 235 241 249 256 258 259 259 265 273 281
212 215 217 218 220 222 224 228 232 232 231 232 235 238 240 242 241 233 227 229 234 236 236 234 235 244 248 238 232 235 234 229 228 239 252 255 253 257 263 267 276 289
211 214 217 218 219 221 221 224 228 231 232 234 236 238 240 241 241 233 227 230 235 236 236 237 236 235 231 223 220 223 228 226 223 233 244 246 246 249 250 256 270 280
211 214 216 217 219 220 220 222 225 228 231 235 239 239 235 231 232 230 227 230 235 237 238 238 237 234 227 221 220 224 225 224 224 227 230 230 231 230 236 248 260 265
211 213 215 216 217 218 221 225 227 228 233 238 239 234 225 222 227 231 229 230 232 233 235 233 232 232 226 221 220 220 218 218 219 219 218 220 224 225 232 238 234 245
210 212 215 215 216 219 222 226 228 229 232 234 229 222 219 220 227 230 230 229 228 225 224 224 226 226 221 216 213 212 213 214 213 214 214 217 225 226 215 197 183 184
208 209 211 212 215 218 221 224 227 227 224 220 215 212 214 218 223 225 224 223 222 219 217 217 217 215 213 212 210 211 216 217 211 211 213 216 224 221 202 188 185 192
201 201 201 202 205 211 218 225 227 222 213 207 203 199 200 204 209 215 216 214 213 213 214 215 213 211 212 214 214 214 216 215 209 206 207 209 207 199 193 193 200 209
193 195 195 196 198 204 213 219 219 213 206 202 198 193 193 194 199 205 208 209 209 210 213 214 212 211 213 215 217 217 216 216 212 206 202 195 189 188 192 199 205 208
191 194 197 199 199 201 206 211 211 209 205 202 198 193 192 191 193 197 200 204 207 210 211 211 209 212 215 218 220 221 219 214 210 207 200 188 182 185 189 194 199 202
192 196 200 202 202 204 206 207 209 209 207 204 199 197 198 198 196 196 197 200 204 207 206 205 206 209 213 215 215 211 204 197 196 196 190 180 175 177 181 182 177 159
192 195 197 198 200 200 201 202 205 207 207 206 201 196 194 191 187 187 190 192 194 196 195 193 195 201 204 203 198 192 189 188 188 186 181 173 166 163 157 143 124 106
188 187 185 187 191 194 196 196 194 193 193 196 194 185 176 173 174 176 181 182 181 181 179 176 172 177 188 189 185 183 184 182 180 177 169 157 146 139 133 120 104 85
185 183 181 183 186 190 192 188 186 187 187 183 160 133 132 151 165 161 160 162 158 155 158 157 147 142 163 175 173 173 171 165 160 157 151 144 136 127 120 110 92 69
182 181 185 188 186 189 194 191 185 176 170 170 142 109 113 133 148 144 143 144 139 133 130 128 123 122 130 143 151 157 156 148 142 138 135 134 130 121 112 104 90 69
177 177 181 181 174 176 177 165 144 130 130 139 152 144 134 130 124 115 111 117 125 123 110 95 94 100 107 115 125 131 131 129 127 124 121 122 124 120 113 106 92 73